Regional Weather Roundup
Issued by NWS

Home | Current Version | Previous Version | Text Only | Print | Product List | Glossary Off
Versions: 1 2 3 4 5 6 7 8 9 10 11 12 13 14 15 16 17 18 19 20 21 22 23 24 25 26 27 28 29 30 31 32 33 34 35 36 37 38 39 40 41 42 43 44 45 46 47 48 49 50

000
ASUS43 KDTX 251401
RWRMI
MICHIGAN HOURLY REGIONAL WEATHER ROUNDUP
NATIONAL WEATHER SERVICE DETROIT/PONTIAC MI
1000 AM EDT SAT MAR 25 2017

NOTE: "FAIR" INDICATES FEW OR NO CLOUDS BELOW 12,000 FEET WITH NO
SIGNIFICANT WEATHER AND/OR OBSTRUCTION TO VISIBILITY.

MIZ047>049-052>055-059>063-066>070-074>076-081>083-251500-
SOUTHEAST LOWER MICHIGAN

CITY           SKY/WX    TMP DP  RH WIND       PRES   REMARKS
ADRIAN         CLOUDY    47  41  80 E13       30.16S
ALMA           LGT RAIN  36  35  98 NE14G21   30.24R WCI  27
ANN ARBOR      LGT RAIN  43  40  89 NE9       30.17R
BAD AXE        MIX PCPN  34  33  96 NE12G20   30.28R WCI  26
CARO           DRIZZLE   36  35  96 NE7       30.25R WCI  30
DETROIT CITY   LGT RAIN  41  40  96 NE8       30.19S FOG
DETROIT        CLOUDY    42  40  92 N9        30.20R FOG
FLINT          LGT RAIN  37  35  92 NE14      30.22S WCI  28
GROSSE ILE     CLOUDY    42  39  89 NE8       30.18R FOG
HILLSDALE      CLOUDY    45  41  87 E9        30.13R
HOWELL         LGT RAIN  38  37  93 E9        30.18S WCI  32

CITY           SKY/WX    TMP DP  RH WIND       PRES   REMARKS
JACKSON        CLOUDY    42  40  92 E8        30.15R
LAMBERTVILLE   CLOUDY    46  41  81 NE8       30.17R HAZE
LANSING        LGT RAIN  37  34  89 NE14      30.19F WCI  28
LAPEER         RAIN      37  36  98 NE8       30.23R WCI  30
MASON          CLOUDY    39  38  98 E9        30.19R WCI  32
MONROE         CLOUDY    45  42  89 NE5       30.17R FOG
MT. CLEMENS    LGT RAIN  39  39 100 N10       30.20R FOG     WCI  32
PONTIAC        LGT RAIN  38  38 100 NE10      30.18R WCI  31
PORT HOPE        N/A     35  33  92 NE20      30.27R WCI  24
TRI CITIES     LGT RAIN  35  35 100 NE17      30.26R FOG     WCI  25
MIDLAND        DRIZZLE   36  34  92 NE16G23   30.26R WCI  26
TROY           LGT RAIN  39  37  93 NE10G16   30.21R WCI  33
SAGINAW HB     LGT RAIN  36  34  93 NE14      30.26R WCI  27
$$
MIZ043>046-050>051-056>058-064>065-071>073-077>080-251500-
SOUTHWEST LOWER MICHIGAN

CITY           SKY/WX    TMP DP  RH WIND       PRES   REMARKS
BATTLE CREEK   LGT RAIN  41  40  96 NE10      30.15R FOG
BENTON HARBOR  RAIN      48  45  89 E9        30.08S FOG
BIG RAPIDS     CLOUDY    35  33  91 E10G17    30.22R FOG     WCI  28
COLDWATER      CLOUDY    48  43  83 E10       30.12R
FREMONT        CLOUDY    37  35  90 E15G22    30.18S WCI  28
HOLLAND        CLOUDY    40  36  86 NE17G24   30.13R WCI  31
GRAND RAPIDS   LGT RAIN  37  35  92 E13       30.18R WCI  29
IONIA          LGT RAIN  36  34  95 NE16      30.18R WCI  26
KALAMAZOO      RAIN      43  40  89 E6        30.14R FOG
LUDINGTON      CLOUDY    37  35  91 E12G20    30.19R WCI  30
MARSHALL       CLOUDY    42  41  98 NE8       30.13F FOG
MOUNT PLEASANT CLOUDY    35  34  94 NE13      30.24R FOG     WCI  27
MUSKEGON       LGT RAIN  40  36  86 E16G24    30.17R WCI  31
SOUTH HAVEN    LGT RAIN  43  42  97 E10G16    30.11R
$$
MIZ016>042-251500-
NORTHERN LOWER MICHIGAN

CITY           SKY/WX    TMP DP  RH WIND       PRES   REMARKS
ALPENA         CLOUDY    33  31  92 NE14      30.35R WCI  23
BEAVER ISLAND  CLOUDY    33  31  93 E13G21    30.33S WCI  23
BELLAIRE       CLOUDY    36  31  82 NE10G22   30.29R WCI  28
CADILLAC       CLOUDY    34  33  94 E14G20    30.22R WCI  25
CHARLEVOIX     CLOUDY    34  32  93 E15       30.34R WCI  24
FRANKFORT      CLOUDY    37  33  82 E9        30.25R WCI  31
GAYLORD        CLOUDY    34  30  85 E9        30.27S WCI  27
GRAYLING       CLOUDY    34  32  93 E18       30.28R WCI  23
HARBOR SPRINGS CLOUDY    33  30  91 NE15G25   30.32S WCI  22
HOUGHTON LAKE  CLOUDY    34  31  88 E16G22    30.26R WCI  24
MANISTEE       CLOUDY    38  35  89 E10       30.22R WCI  31
OSCODA         CLOUDY    35  33  93 NE14G21   30.31R WCI  25
PELLSTON       CLOUDY    33  28  81 E13       30.34S WCI  24
ROGERS CITY    CLOUDY    33  29  88 E13G20      N/A  WCI  23
TRAVERSE CITY  CLOUDY    37  33  85 E8        30.26R WCI  31
$$
MIZ007>008-015-251500-
EASTERN UPPER MICHIGAN

CITY           SKY/WX    TMP DP  RH WIND       PRES   REMARKS
KINROSS        CLOUDY    30  25  81 E13       30.37R WCI  20
MACKINAC ISLAN CLOUDY    31  30  97 E10G17    30.35S WCI  22
NEWBERRY       CLOUDY    31  29  93 E8        30.34S WCI  23
S. S. MARIE    CLOUDY    31  22  69 NE10      30.38R WCI  22
MUNISING         N/A     33  30  88 N5        30.33F WCI  29
$$
MIZ004>006-011>014-085-251500-
CENTRAL UPPER MICHIGAN

CITY           SKY/WX    TMP DP  RH WIND       PRES   REMARKS
ESCANABA       CLOUDY    35  32  88 NE7       30.31S WCI  29
MENOMINEE        N/A    N/A N/A N/A MISG        N/A
SAWYER-GWINN   CLOUDY    30  30 100 NE9       30.30F WCI  22
$$
MIZ001>003-009>011-084-251500-
WESTERN UPPER MICHIGAN

CITY           SKY/WX    TMP DP  RH WIND       PRES   REMARKS
IRON MOUNTAIN  CLOUDY    34  28  79 NE8       30.26F WCI  27
HOUGHTON       CLOUDY    30  23  75 E10       30.34S WCI  21
COPPER HARBOR    N/A     30  23  75 SE8       30.39R WCI  22
IRONWOOD       CLOUDY    33  29  85 E9        30.27F WCI  25
$$

ABBREVIATIONS USED IN REMARKS
   TC - TEMPERATURE IN CELSIUS
  WCI - WIND CHILL INDEX
   HX - HEAT INDEX
  VSB - VISIBILITY




USA.gov is the U.S. government's official web portal to all federal, state and local government web resources and services.